Temperature
23 22 22 21 20 20 22 23 23 24 24 24 23 23 22 21 21 21 21 21 21 20 20 20 19 19 19 19 19 19 19 19 19 19 19 19 19 19 19 19 19 19 19 19 19 19 19 19 19
23 23 22 22 20 21 22 23 24 24 24 24 23 22 21 20 20 20 21 20 20 20 20 20 20 19 19 19 19 19 19 19 19 19 19 19 19 19 19 19 19 19 19 19 19 19 19 19 19
24 23 23 20 21 22 24 24 24 24 25 24 23 22 21 21 20 21 21 20 20 20 20 20 20 19 19 19 19 19 19 19 19 19 19 19 19 19 19 19 19 19 19 19 19 19 19 19 19
24 23 23 21 23 23 23 24 24 24 25 24 23 21 21 21 21 21 21 21 20 20 20 20 20 20 19 19 19 19 19 19 19 19 19 19 19 19 19 19 19 19 19 19 19 19 18 18 18
24 24 21 21 23 24 24 24 25 24 24 23 22 21 21 21 21 21 21 21 21 21 20 20 20 20 19 19 19 19 19 19 19 19 19 19 19 19 19 19 19 19 19 19 19 18 18 18 18
25 22 21 22 22 24 24 25 25 24 23 23 22 21 20 21 21 21 21 21 21 21 20 20 20 20 20 19 19 19 19 19 19 19 19 19 19 19 19 19 19 19 19 18 18 18 18 18 18
24 21 21 22 22 23 24 25 24 23 23 23 23 20 21 21 21 21 21 21 20 20 20 20 20 20 20 19 19 19 19 19 19 19 19 19 19 19 19 19 19 19 18 18 18 18 18 18 18
25 21 22 21 23 23 24 25 25 24 23 23 23 21 21 21 21 20 20 20 20 20 20 20 20 20 20 20 19 19 19 19 19 19 19 19 19 19 19 19 19 19 18 18 18 18 18 18 18
25 20 22 22 23 23 23 24 25 24 23 23 22 22 23 22 21 20 20 20 20 20 20 20 20 20 20 20 19 19 19 19 19 19 19 19 19 19 19 19 19 18 18 18 18 18 18 18 18
24 21 23 23 23 22 23 23 23 23 22 22 22 22 22 21 20 20 20 20 20 20 20 20 20 20 20 19 19 19 19 19 19 19 19 19 19 19 19 19 19 19 18 18 18 18 18 18 18
24 22 23 23 23 23 23 22 21 21 20 20 20 21 21 21 20 20 20 20 20 20 20 20 20 20 20 19 19 19 19 19 19 19 18 18 18 18 18 18 19 19 19 18 18 18 18 18 18
24 23 23 23 23 22 21 21 19 18 18 18 20 20 20 19 19 19 19 20 20 20 20 20 20 20 20 20 19 19 19 19 19 19 18 18 18 18 18 18 18 18 19 18 18 18 18 18 17
24 23 23 23 22 20 19 18 18 17 17 18 19 19 18 18 18 18 18 19 19 19 20 20 20 20 20 20 19 19 19 19 19 19 18 18 18 18 18 18 18 18 18 18 18 18 18 18 17
23 23 22 22 21 20 18 17 17 16 16 17 17 16 17 17 17 17 18 18 18 19 19 19 19 19 19 19 19 19 19 19 19 18 18 18 18 18 18 18 18 18 18 18 18 18 18 18 18
24 22 21 21 21 20 19 16 15 15 15 15 15 15 16 16 16 16 17 17 17 18 18 19 19 19 19 19 19 19 19 19 19 18 18 18 18 18 18 18 18 18 18 18 18 18 18 18 18
22 21 20 20 19 19 18 14 15 14 14 14 14 14 15 15 15 16 16 16 17 17 18 18 18 19 19 19 19 19 19 19 19 18 18 18 18 18 18 18 18 18 18 18 18 18 18 18 18
20 20 20 19 17 17 15 14 14 14 13 13 13 13 14 15 15 15 16 16 16 16 17 18 18 18 18 19 19 19 19 18 18 18 18 18 18 18 18 18 18 18 18 18 18 18 18 18 18
21 20 20 18 16 15 14 13 14 13 13 13 12 13 13 13 14 15 15 15 16 16 17 17 17 18 18 18 18 18 18 18 18 18 18 18 18 18 18 18 18 18 18 18 18 18 18 18 18
20 20 19 18 16 14 13 13 13 13 13 13 12 12 12 12 14 14 15 15 16 16 16 17 17 17 18 18 18 18 18 18 18 18 18 18 18 18 18 18 18 18 18 18 18 18 18 17 17
19 19 18 17 16 14 13 13 13 13 13 13 12 12 12 12 13 14 14 15 15 15 15 16 16 16 17 17 17 18 18 18 18 18 18 18 18 18 18 18 18 17 17 18 17 17 17 17 17
18 18 18 17 15 14 13 13 12 12 13 13 12 12 12 12 12 12 13 13 14 14 14 15 15 15 16 16 17 17 17 18 18 18 18 18 18 18 17 18 18 17 17 17 17 17 17 17 17
17 18 17 17 15 13 14 13 11 11 11 12 12 12 11 12 12 12 12 13 13 13 14 14 14 15 15 15 16 16 17 17 17 18 18 18 18 18 17 17 17 17 17 17 17 17 17 17 17
17 16 16 16 14 12 11 12 11 10 11 11 12 12 11 11 11 11 12 12 12 13 13 13 14 14 15 15 15 16 16 16 17 17 17 17 17 17 17 17 17 17 17 17 17 16 16 16 16
15 15 14 12 12 11 11 11 11 10 11 11 11 11 11 11 11 11 12 12 12 12 13 13 13 14 14 14 15 15 15 16 16 16 16 16 16 17 17 17 17 16 16 16 16 16 16 16 15
13 13 13 13 11 12 12 11 11 11 11 11 11 11 11 11 11 11 11 12 12 12 12 13 13 13 13 14 14 14 15 15 15 15 16 16 16 16 16 16 16 16 16 15 15 15 15 15 15
13 12 13 14 12 11 11 11 11 12 12 12 12 12 11 11 11 11 11 11 12 12 12 12 13 13 13 13 13 14 14 14 15 15 15 15 15 15 15 15 15 15 15 15 15 15 15 15 15
14 11 12 11 11 11 11 12 12 12 11 12 12 12 11 11 11 11 11 11 11 12 12 12 12 12 13 13 13 13 14 14 14 14 14 15 15 15 15 15 15 14 14 14 14 14 14 14 14
12 11 10 11 11 11 11 11 10 10 11 11 11 11 11 11 11 11 11 11 11 11 12 12 12 12 12 13 13 13 13 13 14 14 14 14 14 14 14 14 14 14 14 14 14 14 14 14 14
12 12 9 9 10 10 11 10 11 11 10 10 11 11 12 12 11 11 11 11 11 11 12 12 12 12 12 12 13 13 13 13 13 14 14 14 14 14 14 14 14 14 14 14 14 14 14 14 14
13 12 10 10 9 9 9 10 12 11 11 11 11 12 12 12 12 12 11 11 11 11 11 11 12 12 12 12 12 13 13 13 13 13 14 14 14 14 14 14 14 14 14 14 14 14 14 14 14
Wind_Speed
1 6 4 4 5 6 3 3 2 2 4 3 4 6 6 4 2 2 3 9 11 11 12 15 14 13 12 12 11 11 10 10 11 11 11 11 11 11 10 10 10 9 9 8 8 8 8 8 8
3 4 3 5 6 4 3 4 2 1 4 4 5 5 6 4 3 5 5 7 12 12 12 13 15 13 13 12 11 10 10 10 10 10 10 10 10 9 9 9 9 8 8 8 7 7 7 7 7
4 3 4 5 4 4 1 2 1 3 4 2 4 5 4 3 5 5 6 10 11 10 12 13 15 14 13 12 11 10 10 10 10 9 9 9 9 8 8 8 8 8 7 7 7 6 6 7 6
4 4 5 5 3 2 2 2 2 4 3 5 4 5 4 2 6 6 11 12 11 8 11 14 15 14 13 12 11 11 10 10 10 9 8 8 8 7 7 7 7 7 6 6 6 5 6 6 6
4 4 6 5 5 4 2 1 2 3 3 4 4 4 3 4 7 12 13 12 11 9 11 13 15 14 13 12 12 11 11 10 10 9 8 7 7 7 6 6 6 6 5 5 5 5 5 5 4
4 5 6 3 6 5 4 3 2 3 3 3 4 4 3 2 8 11 12 10 9 9 10 12 15 15 14 13 12 12 11 10 10 9 8 7 7 6 6 5 5 5 5 4 4 4 4 4 4
4 5 4 2 4 6 6 4 3 3 3 2 4 4 1 2 6 10 9 8 7 7 7 9 13 14 14 14 13 13 12 11 10 10 9 8 7 6 6 5 4 4 4 3 3 3 3 4 4
4 5 4 2 3 5 7 4 3 3 2 3 4 5 4 5 6 7 7 6 5 5 5 6 9 11 12 13 14 13 13 12 11 10 9 9 8 7 6 5 4 4 3 2 2 2 3 3 4
4 5 2 0 1 3 6 5 5 4 5 4 3 2 3 10 9 7 6 4 4 6 5 4 6 8 10 11 13 14 14 14 13 11 11 9 7 6 5 5 5 4 3 2 1 0 1 3 4
5 4 1 2 2 1 4 7 6 6 8 7 7 7 8 11 9 7 6 7 8 8 7 6 5 6 8 10 10 11 12 12 12 11 10 9 7 6 6 6 6 6 5 3 2 1 1 2 3
4 4 1 1 1 1 4 9 11 7 8 7 5 5 8 7 5 3 4 5 7 7 7 8 7 7 7 7 7 8 9 9 11 11 11 9 7 6 5 4 5 5 4 2 2 2 1 1 1
3 2 1 2 4 5 6 6 11 17 9 10 8 9 10 8 5 3 3 4 4 4 6 7 8 6 7 8 6 7 6 7 8 11 12 9 5 5 5 4 5 5 4 3 2 2 2 2 3
3 2 4 6 10 11 15 13 10 16 15 15 18 19 16 13 11 9 9 7 5 4 5 6 7 9 7 7 6 6 7 8 10 11 12 12 6 4 5 5 5 6 6 4 3 3 3 2 3
2 5 6 7 8 8 17 14 10 13 14 18 20 18 16 15 14 14 14 13 11 8 7 5 5 7 7 8 8 6 8 9 9 11 13 14 11 7 5 4 5 6 7 6 5 3 3 2 2
3 5 8 9 6 3 9 15 13 14 13 18 18 16 16 15 14 14 13 12 11 10 9 7 4 5 7 9 9 7 8 9 8 10 13 14 13 10 7 5 5 6 8 6 4 3 2 2 1
5 6 5 7 9 7 10 8 13 13 14 16 15 14 14 13 13 13 13 12 11 11 10 9 8 5 5 7 7 5 7 8 8 10 12 14 14 13 8 5 6 7 7 5 3 3 2 2 2
7 4 3 6 12 8 10 8 10 11 14 15 14 14 13 14 15 14 13 12 12 11 10 10 9 8 6 5 5 5 5 6 8 9 9 11 13 13 9 6 6 7 4 4 4 3 3 3 3
1 2 3 4 7 11 13 9 9 11 14 14 13 13 14 15 15 14 13 12 11 10 10 9 9 8 7 4 4 4 5 6 6 7 9 11 11 13 10 6 6 6 4 4 4 3 2 2 3
4 4 4 4 5 8 11 10 8 10 15 16 15 14 15 14 12 12 12 12 11 11 11 10 10 9 7 4 3 3 4 5 5 6 8 9 10 10 9 6 5 5 5 6 6 4 4 2 3
5 5 3 4 6 6 7 8 6 9 11 11 12 13 13 16 16 16 15 13 12 11 11 10 10 9 7 5 4 3 3 4 5 5 6 8 9 9 9 8 6 6 5 5 5 4 4 3 3
4 4 1 2 4 5 4 4 7 6 7 11 12 11 13 15 17 17 16 14 12 11 11 11 10 10 8 7 5 4 2 2 3 5 6 6 7 8 6 6 6 6 5 5 5 5 5 4 2
2 2 1 2 4 2 2 0 6 8 9 14 15 15 15 16 16 15 15 15 13 12 11 10 10 9 8 7 5 4 3 4 4 4 4 4 6 7 7 6 6 7 6 6 6 5 4 4 3
3 4 1 2 5 4 7 4 5 7 10 15 15 15 15 15 15 15 14 13 13 12 11 9 10 9 8 7 5 4 4 4 3 2 3 4 5 5 6 7 6 7 6 7 6 6 5 3 4
3 4 6 6 5 5 5 3 5 6 10 14 14 15 15 15 15 14 13 12 11 11 10 9 9 9 8 7 6 4 4 3 2 1 2 3 3 3 4 5 6 6 5 6 6 6 6 5 4
9 6 4 5 5 2 2 4 2 6 8 10 13 15 15 14 14 14 15 14 14 13 12 10 9 8 9 8 7 5 4 3 2 0 1 2 2 2 3 4 4 4 4 5 5 6 6 6 6
4 5 5 3 2 1 3 2 4 5 8 9 9 11 13 14 14 14 15 14 13 12 12 11 10 9 9 8 7 6 5 3 3 3 2 2 2 2 3 3 4 4 4 4 4 4 5 5 5
4 4 3 6 3 3 3 3 5 5 10 10 12 13 14 15 15 15 15 14 13 12 12 11 11 10 9 8 8 7 7 6 5 4 4 3 3 3 3 3 3 4 4 4 4 3 3 4 4
5 4 5 5 3 1 3 3 5 10 13 13 14 13 13 14 14 15 14 14 13 12 12 11 11 10 9 9 8 7 7 6 6 5 5 4 3 3 3 3 3 3 3 3 3 3 3 3 3
6 5 6 5 4 4 1 4 4 6 8 10 11 12 11 12 12 12 12 13 13 12 12 12 12 11 11 10 9 9 8 8 7 7 6 5 4 4 3 3 3 3 2 2 3 3 3 3 2
4 3 3 4 2 3 3 4 5 5 7 7 9 10 10 10 10 10 11 12 12 12 12 12 11 11 11 10 10 10 9 9 9 9 8 7 6 5 5 4 4 4 3 2 2 3 3 3 2
Wind_Direction
227 123 106 69 54 49 34 332 294 352 45 40 68 85 96 101 158 184 121 139 138 145 157 159 157 154 152 150 146 141 138 134 130 127 125 124 125 125 125 125 125 124 121 119 117 120 122 122 121
147 128 80 63 77 64 336 313 316 352 127 125 70 73 71 65 72 108 131 143 143 147 152 157 158 157 156 154 151 150 146 140 136 133 130 128 126 125 125 125 125 125 124 122 120 122 122 122 120
149 121 88 72 88 138 235 291 259 55 96 88 72 61 78 106 131 148 156 145 143 146 151 160 161 160 160 159 159 158 153 150 144 138 136 133 131 128 127 127 126 125 123 121 119 118 119 118 117
118 62 56 67 61 248 251 259 172 115 69 55 85 63 58 86 150 150 142 147 147 146 153 166 165 165 167 168 168 165 161 156 149 146 144 140 136 133 131 130 127 125 124 122 118 115 114 115 113
71 80 56 43 359 327 305 279 166 97 66 56 80 81 36 15 114 133 144 152 153 151 158 170 170 172 174 177 175 173 169 163 159 158 157 152 148 142 137 134 132 129 125 119 113 113 111 109 107
59 65 69 28 337 338 359 9 86 89 86 82 89 87 23 98 128 145 151 154 157 159 163 174 177 179 182 183 182 179 177 173 171 171 171 167 165 157 151 146 139 133 125 115 105 101 100 99 97
90 79 90 44 349 2 1 1 85 103 109 136 120 100 57 174 163 149 148 145 152 162 167 179 183 185 188 189 188 186 184 183 183 183 183 182 179 175 167 162 156 148 135 122 106 92 88 85 86
103 93 76 42 21 346 333 360 67 84 95 102 107 134 192 199 155 133 126 131 151 170 181 185 187 187 190 194 195 194 193 192 192 193 194 194 192 190 188 184 182 179 169 150 119 84 72 69 69
77 72 78 139 111 316 339 23 29 54 73 49 55 156 196 140 131 122 119 135 169 192 203 199 198 195 194 197 203 201 201 199 199 201 202 201 199 201 204 203 207 212 209 202 185 71 45 48 47
71 100 198 199 180 262 12 36 19 43 39 16 18 37 89 125 138 148 162 181 196 206 207 204 206 204 200 205 209 206 204 203 201 202 205 200 198 205 212 219 226 229 233 238 243 270 14 46 40
84 143 213 327 144 26 36 48 38 50 28 355 346 54 92 107 125 164 204 210 215 218 216 210 209 207 204 210 209 206 204 201 201 202 203 199 200 210 219 224 244 257 258 262 301 340 16 29 339
84 62 84 28 67 57 50 49 52 43 14 358 34 66 71 70 57 19 335 305 280 249 231 225 214 209 210 213 215 208 205 203 203 204 203 195 196 207 216 220 230 239 243 240 252 269 275 271 260
63 52 57 55 79 80 72 56 65 32 19 36 49 49 45 41 31 23 15 1 335 294 266 246 223 216 213 212 219 214 211 212 210 206 206 202 200 206 214 223 226 226 225 223 235 250 261 260 252
61 81 58 38 66 70 76 51 43 13 17 40 44 43 39 35 27 23 17 10 1 346 323 289 250 230 217 217 220 219 215 217 212 211 211 208 210 211 211 218 221 223 218 217 223 240 257 264 249
77 84 51 28 34 74 86 46 21 4 26 40 37 35 34 30 25 19 9 3 356 351 347 333 288 247 229 225 227 227 219 212 213 218 216 213 213 214 213 216 221 222 216 209 213 230 241 246 230
50 59 47 19 16 30 76 58 10 7 34 38 31 27 25 21 19 12 5 0 356 352 351 347 339 320 265 237 228 228 224 217 218 217 213 213 216 216 212 215 227 222 204 193 192 196 198 214 202
35 57 45 20 21 42 74 75 18 19 36 34 24 18 14 11 9 5 360 355 350 348 346 346 344 341 318 278 243 228 226 222 220 214 212 211 213 214 210 216 224 213 192 188 198 180 179 191 198
22 76 63 53 41 67 83 78 36 26 35 31 19 13 9 5 357 351 350 350 346 343 342 341 338 339 331 311 272 240 232 229 220 214 211 208 210 210 207 212 215 199 190 191 182 172 166 175 175
101 105 94 79 97 78 85 77 39 24 27 22 14 7 3 355 346 345 345 345 345 343 341 337 335 333 333 329 302 263 239 230 224 221 216 209 209 207 201 207 204 191 199 202 183 161 160 157 134
76 94 78 77 97 100 104 78 38 32 26 16 7 358 352 348 348 347 345 344 344 338 334 333 331 327 327 319 292 266 253 242 229 224 213 206 207 205 205 197 195 188 193 193 181 163 153 155 153
52 103 116 138 82 89 118 55 14 360 8 10 8 358 351 350 343 340 340 338 338 337 334 332 326 323 322 321 306 293 274 253 224 221 214 204 200 199 195 192 189 182 181 191 188 178 165 164 171
343 345 289 187 126 68 1 316 1 336 347 2 359 355 350 345 341 338 337 335 334 331 328 326 325 325 323 322 315 294 272 259 246 233 214 199 189 183 183 182 182 179 176 176 182 173 170 157 167
305 342 28 125 126 78 27 70 334 338 353 349 345 345 342 341 339 337 335 330 328 329 327 329 329 331 331 328 316 300 286 274 273 237 196 189 185 183 176 176 176 179 177 175 173 171 171 166 169
350 62 61 55 74 58 348 53 354 347 333 331 334 337 338 338 338 337 337 335 332 331 331 335 336 336 338 338 335 323 305 295 289 230 186 180 174 170 172 170 172 173 173 177 180 180 179 181 180
36 67 44 24 34 27 349 75 328 303 319 322 325 332 337 340 341 342 343 342 340 340 341 341 341 344 347 348 353 353 341 332 344 346 161 149 154 153 162 160 162 163 171 179 179 180 181 185 187
34 85 122 152 165 307 14 34 275 289 313 318 325 333 341 345 347 348 346 343 343 346 350 351 352 354 355 356 0 4 7 9 15 30 64 88 105 122 134 144 152 156 160 167 170 174 178 180 189
60 61 121 120 110 71 1 339 316 326 339 341 343 346 347 347 349 350 350 351 351 353 357 358 1 4 4 5 8 13 17 26 30 36 53 68 74 98 119 130 138 145 151 159 157 170 186 180 188
87 108 77 83 107 62 353 346 316 324 333 337 340 341 341 345 348 351 353 354 355 358 3 7 7 9 9 14 16 20 17 23 31 41 46 53 68 80 101 114 123 129 137 142 146 162 179 183 190
23 52 79 84 100 126 27 302 265 292 310 322 327 331 336 341 344 347 351 356 360 5 11 12 10 14 16 17 19 22 22 25 32 39 40 46 54 62 84 102 110 115 124 133 148 171 170 175 186
94 81 117 117 94 112 137 272 283 296 306 316 322 329 334 337 341 346 352 357 3 6 9 10 11 14 14 15 22 24 25 31 35 36 34 40 47 48 55 70 83 89 91 99 139 161 158 157 169
Height
1512 1511 1511 1513 1516 1527 1528 1521 1516 1514 1513 1514 1514 1514 1516 1519 1523 1526 1522 1523 1526 1529 1531 1534 1537 1539 1541 1543 1544 1545 1547 1548 1549 1549 1550 1551 1551 1552 1552 1553 1554 1555 1555 1556 1556 1557 1558 1558 1559
1512 1511 1513 1514 1524 1539 1532 1520 1517 1514 1514 1515 1515 1516 1517 1519 1520 1520 1521 1524 1527 1530 1532 1535 1538 1540 1542 1544 1545 1546 1547 1548 1549 1550 1551 1551 1552 1552 1553 1554 1554 1555 1556 1556 1557 1557 1558 1559 1559
1512 1512 1514 1517 1527 1535 1528 1518 1516 1515 1515 1515 1517 1518 1519 1521 1521 1521 1523 1525 1528 1531 1534 1536 1539 1541 1543 1544 1546 1547 1548 1549 1550 1550 1551 1552 1552 1553 1553 1554 1554 1555 1556 1556 1557 1557 1558 1559 1560
1512 1514 1515 1522 1527 1525 1521 1517 1516 1515 1516 1516 1518 1520 1521 1523 1523 1524 1525 1527 1529 1532 1535 1537 1539 1541 1543 1545 1546 1547 1548 1549 1550 1551 1551 1552 1553 1553 1554 1554 1555 1555 1556 1556 1557 1558 1558 1559 1560
1512 1513 1521 1530 1527 1521 1517 1516 1516 1516 1517 1518 1519 1521 1523 1524 1525 1526 1527 1529 1531 1533 1536 1538 1540 1542 1544 1545 1546 1547 1548 1549 1550 1551 1552 1552 1553 1553 1554 1554 1555 1555 1556 1556 1557 1558 1558 1559 1560
1513 1514 1531 1537 1530 1521 1518 1517 1517 1518 1519 1520 1521 1523 1525 1526 1527 1528 1529 1531 1533 1535 1537 1539 1541 1542 1544 1545 1546 1548 1549 1549 1550 1551 1552 1552 1553 1553 1554 1554 1555 1555 1556 1556 1557 1557 1558 1559 1560
1515 1521 1532 1533 1531 1525 1520 1519 1519 1520 1521 1522 1522 1524 1525 1526 1528 1530 1531 1532 1534 1536 1538 1539 1541 1542 1544 1545 1546 1547 1548 1549 1550 1551 1552 1552 1553 1553 1554 1554 1555 1555 1556 1556 1557 1557 1558 1559 1560
1515 1521 1531 1534 1532 1529 1522 1520 1521 1522 1523 1524 1525 1525 1526 1527 1529 1531 1532 1534 1535 1537 1539 1540 1541 1542 1544 1545 1546 1547 1548 1549 1550 1551 1551 1552 1552 1553 1553 1554 1554 1555 1556 1556 1557 1557 1558 1559 1560
1517 1527 1535 1532 1531 1529 1524 1522 1523 1524 1525 1527 1527 1527 1528 1529 1530 1532 1533 1535 1536 1538 1539 1540 1541 1542 1543 1544 1545 1546 1547 1548 1549 1550 1551 1551 1552 1552 1553 1553 1554 1554 1555 1556 1557 1557 1558 1559 1560
1519 1532 1530 1527 1527 1527 1526 1526 1526 1527 1528 1529 1529 1529 1529 1530 1531 1533 1534 1535 1537 1538 1539 1540 1541 1542 1543 1544 1544 1545 1546 1547 1548 1549 1550 1550 1551 1552 1552 1552 1553 1554 1555 1556 1557 1557 1558 1559 1560
1520 1526 1525 1525 1526 1527 1527 1530 1532 1532 1536 1536 1534 1532 1532 1533 1534 1535 1536 1537 1538 1538 1539 1540 1541 1541 1542 1542 1543 1544 1544 1545 1546 1547 1548 1549 1550 1551 1551 1552 1552 1553 1554 1555 1556 1557 1558 1559 1560
1523 1525 1525 1527 1527 1529 1530 1534 1537 1541 1545 1540 1536 1534 1534 1535 1536 1537 1538 1538 1538 1538 1539 1540 1540 1540 1541 1541 1542 1542 1543 1544 1544 1545 1547 1548 1549 1549 1550 1551 1551 1552 1553 1554 1556 1557 1558 1559 1560
1525 1527 1528 1529 1530 1532 1534 1539 1542 1548 1546 1542 1538 1537 1538 1539 1539 1539 1539 1538 1538 1537 1537 1538 1538 1538 1539 1539 1540 1540 1541 1542 1543 1544 1545 1546 1547 1548 1549 1550 1550 1551 1552 1553 1555 1557 1558 1559 1560
1526 1528 1530 1531 1531 1535 1537 1545 1547 1552 1549 1544 1541 1541 1541 1541 1540 1539 1538 1536 1535 1535 1534 1535 1535 1536 1536 1537 1537 1538 1539 1539 1540 1541 1542 1544 1545 1546 1548 1549 1549 1550 1551 1553 1554 1556 1558 1559 1560
1526 1529 1532 1535 1535 1538 1538 1551 1558 1557 1553 1548 1546 1545 1544 1543 1541 1540 1538 1537 1535 1533 1532 1531 1532 1532 1533 1533 1534 1535 1536 1537 1537 1538 1539 1541 1543 1544 1546 1547 1548 1549 1551 1552 1553 1555 1557 1558 1559
1528 1535 1543 1541 1540 1540 1544 1566 1565 1561 1556 1552 1551 1549 1546 1545 1543 1541 1539 1537 1535 1532 1530 1529 1528 1528 1528 1529 1530 1531 1532 1533 1534 1535 1536 1538 1540 1542 1543 1545 1546 1548 1549 1550 1552 1554 1555 1557 1558
1540 1546 1548 1548 1546 1546 1552 1567 1568 1564 1559 1556 1554 1552 1549 1546 1544 1542 1539 1536 1534 1531 1529 1527 1525 1524 1524 1524 1525 1526 1527 1528 1530 1531 1532 1534 1536 1538 1540 1542 1543 1545 1546 1548 1550 1552 1553 1555 1556
1547 1549 1551 1554 1556 1555 1561 1570 1569 1566 1562 1560 1557 1554 1551 1548 1545 1542 1539 1536 1533 1530 1527 1525 1523 1521 1520 1519 1519 1520 1521 1523 1524 1526 1528 1529 1532 1534 1536 1538 1540 1542 1544 1545 1547 1549 1551 1553 1554
1544 1549 1553 1555 1557 1562 1568 1571 1571 1568 1564 1561 1559 1556 1553 1549 1546 1542 1538 1534 1531 1528 1525 1522 1520 1518 1516 1515 1515 1515 1516 1517 1518 1520 1522 1525 1527 1529 1532 1534 1536 1538 1540 1542 1544 1546 1548 1550 1552
1547 1552 1556 1558 1559 1565 1571 1573 1572 1569 1568 1566 1563 1558 1554 1549 1544 1539 1536 1532 1529 1526 1523 1520 1517 1514 1512 1511 1510 1510 1511 1511 1512 1515 1516 1519 1521 1524 1526 1528 1531 1534 1536 1539 1541 1543 1545 1546 1549
1552 1555 1556 1559 1563 1566 1570 1575 1575 1571 1569 1567 1563 1560 1555 1550 1545 1539 1534 1531 1527 1523 1520 1517 1514 1511 1509 1507 1506 1505 1506 1506 1508 1509 1511 1513 1516 1519 1521 1523 1526 1529 1531 1534 1536 1539 1541 1543 1545
1558 1553 1554 1556 1565 1575 1573 1582 1580 1574 1570 1566 1563 1559 1555 1550 1545 1539 1534 1529 1525 1522 1518 1515 1512 1509 1506 1504 1502 1502 1501 1501 1502 1504 1506 1508 1511 1513 1515 1518 1520 1523 1526 1528 1531 1534 1536 1539 1540
1555 1553 1555 1557 1566 1578 1580 1584 1586 1577 1573 1568 1564 1560 1555 1550 1545 1539 1534 1529 1525 1520 1516 1513 1510 1507 1504 1501 1500 1498 1498 1498 1498 1499 1501 1503 1505 1508 1510 1513 1516 1519 1521 1524 1526 1529 1531 1534 1536
1555 1556 1559 1566 1573 1587 1587 1588 1589 1583 1579 1572 1566 1561 1556 1550 1545 1539 1533 1528 1523 1519 1515 1511 1508 1505 1502 1499 1497 1496 1495 1495 1495 1496 1497 1499 1501 1504 1506 1509 1511 1514 1517 1519 1522 1524 1526 1529 1531
1560 1567 1577 1579 1589 1591 1585 1588 1590 1581 1577 1573 1568 1562 1556 1551 1544 1538 1532 1527 1522 1517 1514 1510 1507 1503 1501 1498 1496 1494 1493 1493 1493 1494 1495 1497 1498 1500 1502 1505 1508 1510 1512 1515 1517 1520 1522 1524 1526
1566 1571 1582 1586 1591 1593 1588 1589 1587 1579 1576 1572 1568 1563 1557 1551 1545 1539 1534 1528 1523 1518 1514 1510 1507 1503 1501 1498 1496 1494 1493 1493 1493 1493 1494 1496 1497 1499 1501 1503 1505 1507 1509 1512 1514 1515 1517 1520 1522
1568 1575 1575 1586 1589 1595 1593 1588 1583 1578 1575 1571 1567 1562 1557 1552 1547 1541 1535 1529 1524 1520 1515 1512 1508 1505 1502 1499 1497 1495 1494 1494 1494 1494 1495 1495 1496 1498 1499 1501 1503 1505 1507 1509 1511 1513 1515 1516 1518
1570 1574 1580 1586 1592 1596 1594 1593 1593 1582 1577 1572 1568 1563 1559 1554 1548 1543 1537 1531 1526 1522 1518 1514 1510 1507 1505 1502 1500 1498 1497 1496 1496 1496 1496 1496 1497 1498 1500 1501 1502 1504 1505 1507 1509 1511 1512 1514 1515
1574 1577 1584 1592 1593 1598 1600 1599 1585 1582 1578 1574 1569 1565 1561 1556 1551 1546 1541 1535 1530 1525 1521 1518 1514 1511 1508 1506 1504 1502 1500 1499 1499 1498 1498 1498 1499 1499 1500 1502 1503 1504 1505 1506 1508 1509 1511 1512 1514
1574 1578 1583 1590 1597 1599 1601 1600 1580 1579 1577 1574 1570 1566 1562 1558 1554 1550 1545 1539 1534 1530 1526 1521 1518 1515 1512 1509 1507 1506 1504 1503 1502 1501 1501 1501 1501 1501 1502 1502 1503 1504 1505 1507 1508 1509 1510 1512 1513